Swisher, IA

6:12 PM CDT on July 24, 2016 (GMT -0500)
The Eastern Iowa Airport

Weather History for KCID - January, 2013

Change the Weather History Date:

Monday, January 21, 2013

  Actual Average Record
Temperature  
Mean Temperature 4 °F 19 °F  
Max Temperature 10 °F 28 °F 56 °F (1957)
Min Temperature -2 °F 11 °F -23 °F (1970)
Degree Days  
Heating Degree Days 61 46  
Month to date heating degree days 871 961  
Since 1 July heating degree days 3570 3700  
Cooling Degree Days 0 0  
Month to date cooling degree days 0 0  
Year to date cooling degree days 0 0  
Moisture  
Dew Point -5 °F    
Average Humidity 68    
Maximum Humidity 80    
Minimum Humidity 55    
Precipitation  
Precipitation T in 0.03 in 0.45 in (1999)
Month to date precipitation 0.12 0.60  
Year to date precipitation 0.12 0.60  
Sea Level Pressure  
Sea Level Pressure 30.35 in    
Wind  
Wind Speed 17 mph (WNW)    
Max Wind Speed 29 mph    
Max Gust Speed 35 mph    
Visibility 10 miles    
Events      
T = Trace of Precipitation, MM = Missing Value Source: NWS Daily Summary

Daily Weather History Graph

Daily Weather History Graph

Search for Another Location

Airport or City:

Trip Planner

Search our weather history database for the weather conditions in past years. The results will help you decide how hot, cold, wet, or windy it might be!

Date:

Astronomy

Jan. 21, 2013 Rise Set
Actual Time 7:28 AM CST 5:08 PM CST
Civil Twilight 6:58 AM CST 5:38 PM CST
Nautical Twilight 6:24 AM CST 6:12 PM CST
Astronomical Twilight 5:51 AM CST 6:45 PM CST
Moon 12:48 PM CST (1/21) 2:57 AM CST (1/21)
Length of Visible Light 10h 40m
Length of Day
9h 39m
Waxing Gibbous, 75% of the Moon is Illuminated
Jan 21
Waxing Gibbous
Jan 26
Full
Feb 3
Last Quarter
Feb 10
New
Feb 17
First Quarter

Hourly Weather History & Observations

Time (CST) Temp. Windchill Dew Point Humidity Pressure Visibility Wind Dir Wind Speed Gust Speed Precip Events Conditions
12:17 AM 8.6 °F -8.9 °F 3.2 °F 79% 30.25 in 10.0 mi West 16.1 mph - 0.00 in   Scattered Clouds
12:52 AM 7.0 °F -9.8 °F 1.9 °F 80% 30.30 in 10.0 mi West 13.8 mph - 0.00 in   Clear
1:52 AM 6.1 °F -12.2 °F 1.9 °F 83% 30.30 in 10.0 mi WNW 16.1 mph - N/A   Clear
2:52 AM 5.0 °F -14.2 °F -2.9 °F 70% 30.31 in 10.0 mi NW 17.3 mph 27.6 mph N/A   Clear
3:52 AM 5.0 °F -14.2 °F -2.0 °F 73% 30.30 in 10.0 mi WNW 17.3 mph 25.3 mph N/A   Clear
4:52 AM 3.9 °F -15.6 °F -4.0 °F 70% 30.30 in 10.0 mi NW 17.3 mph - N/A   Clear
5:52 AM -0.0 °F -22.4 °F -8.0 °F 69% 30.34 in 10.0 mi NW 20.7 mph 28.8 mph N/A   Clear
6:52 AM -0.9 °F -24.1 °F -9.0 °F 69% 30.35 in 10.0 mi NW 21.9 mph 27.6 mph N/A   Clear
7:52 AM -0.9 °F -23.5 °F -8.0 °F 72% 30.37 in 10.0 mi NW 20.7 mph - N/A   Partly Cloudy
8:52 AM -0.9 °F -24.1 °F -9.9 °F 66% 30.38 in 10.0 mi NW 21.9 mph 28.8 mph N/A   Clear
9:52 AM -0.9 °F -24.1 °F -11.0 °F 62% 30.40 in 10.0 mi WNW 21.9 mph 29.9 mph N/A   Clear
10:52 AM 1.0 °F -19.9 °F -9.9 °F 60% 30.40 in 10.0 mi NW 18.4 mph 27.6 mph N/A   Clear
11:52 AM 3.0 °F -19.3 °F -8.0 °F 60% 30.39 in 10.0 mi WNW 23.0 mph 28.8 mph N/A   Clear
12:52 PM 5.0 °F -15.2 °F -6.0 °F 61% 30.36 in 10.0 mi NW 19.6 mph - N/A   Clear
1:52 PM 6.1 °F -13.3 °F -5.1 °F 60% 30.35 in 10.0 mi WNW 18.4 mph - N/A   Clear
2:52 PM 8.1 °F -10.7 °F -5.1 °F 55% 30.34 in 10.0 mi WNW 18.4 mph 25.3 mph N/A   Clear
3:52 PM 8.1 °F -11.2 °F -4.0 °F 58% 30.34 in 10.0 mi WNW 19.6 mph 23.0 mph N/A   Clear
4:52 PM 6.1 °F -13.8 °F -5.1 °F 60% 30.34 in 10.0 mi WNW 19.6 mph 25.3 mph N/A   Clear
5:52 PM 3.0 °F -16.1 °F -2.9 °F 76% 30.36 in 10.0 mi West 16.1 mph - N/A   Clear
6:52 PM 1.9 °F -14.7 °F -4.0 °F 76% 30.36 in 10.0 mi West 11.5 mph - N/A   Clear
7:52 PM 1.9 °F -16.2 °F -4.0 °F 76% 30.37 in 10.0 mi West 13.8 mph - N/A   Clear
8:52 PM 1.9 °F -17.5 °F -5.1 °F 72% 30.37 in 10.0 mi West 16.1 mph - N/A   Clear
9:52 PM 1.0 °F -17.3 °F -5.1 °F 75% 30.39 in 10.0 mi West 13.8 mph - N/A   Clear
10:52 PM 1.0 °F -14.9 °F -5.1 °F 75% 30.40 in 10.0 mi WNW 10.4 mph - N/A   Clear
11:52 PM -0.0 °F -16.3 °F -5.1 °F 79% 30.40 in 10.0 mi WNW 10.4 mph - N/A   Clear